• Join FlightAware (Why Join?)
  • Login
  • US Flag GB Flag 
15:20 EST


 

Airport Tracker/Info


-or-


 

Live Flight TrackerFlight Track Log ✈ N682RW ✈ 16-Jun-2013 ✈ KMSP - KDTW

Flight Track Log - Related Links

Times and Time Zones

All times are in EDT time to prevent confusion due to time zone crossing. See the N682RW flight status page for this flight to view local times or setup timezone preferences in your user account.

Time Position Orientation Groundspeed Altitude Reporting Facility
EDT Latitude Longitude Course Direction KTS MPH feet Rate Location/Type
19:11 44.9333 -93.2333 117° Southeast 197 227 3,000  Level Minneapolis TRACON
19:12 44.9408 -93.2311 12° North 200 230 3,300 2,104 Climbing Minneapolis Center
19:13 44.9919 -93.1564 46° Northeast 263 303 5,700 1,742 Climbing Minneapolis Center
19:14 45.0458 -93.0681 49° Northeast 291 335 6,900 1,258 Climbing Minneapolis Center
19:15 45.0639 -92.9581 77° East 300 345 8,300 1,887 Climbing Minneapolis Center
19:16 45.0553 -92.8303 95° East 323 372 10,800 2,419 Climbing Minneapolis Center
19:17 44.6853 -92.3335 117° Southeast  Level Estimated
19:17 44.9617 -92.7242 141° Southeast 381 438 13,300  Level Minneapolis Center
19:18 44.8686 -92.6372 146° Southeast 401 461 16,100 2,516 Climbing Minneapolis Center
19:19 44.7722 -92.5533 148° Southeast 406 467 18,500 2,112 Climbing Minneapolis Center
19:20 44.6792 -92.4497 142° Southeast 432 497 20,500 1,824 Climbing Minneapolis Center
19:21 44.6061 -92.3119 127° Southeast 438 504 22,300 1,210 Climbing Minneapolis Center
19:22 44.5325 -92.1647 125° Southeast 454 522 23,000 919 Climbing Minneapolis Center
19:23 44.4572 -92.0183 126° Southeast 461 531 24,200 1,500 Climbing Minneapolis Center
19:24 44.3650 -91.8400 126° Southeast 470 541 26,100 1,452 Climbing Minneapolis Center
19:25 44.3000 -91.6700 118° Southeast 490 564 27,200 1,306 Climbing Minneapolis Center
19:26 44.2342 -91.4961 118° Southeast 504 580 28,800 1,306 Climbing Minneapolis Center
19:27 44.1675 -91.3208 118° Southeast 511 588 29,900 1,161 Climbing Minneapolis Center
19:28 44.0922 -91.1275 118° Southeast 522 601 31,200 1,306 Climbing Minneapolis Center
19:29 44.0244 -90.9497 118° Southeast 525 604 32,600 1,161 Climbing Minneapolis Center
19:30 43.9564 -90.7742 118° Southeast 521 600 33,600 1,016 Climbing Minneapolis Center
19:31 43.8744 -90.5658 119° Southeast 521 600 34,700 923 Climbing Minneapolis Center
19:32 43.8444 -90.4953 121° Southeast 521 600 35,000 198 Climbing Chicago Center
19:33 43.7772 -90.3181 118° Southeast 523 602 35,000  Level Chicago Center
19:33 43.7633 -90.1975 99° East 529 609 35,000  Level Minneapolis Center
19:34 43.7617 -90.0975 91° East 523 602 35,000  Level Chicago Center
19:35 43.7517 -89.8958 94° East 526 605 35,000  Level Chicago Center
19:36 43.7344 -89.6933 97° East 530 610 35,000  Level Chicago Center
19:37 43.7194 -89.4908 96° East 529 609 35,000  Level Chicago Center
19:38 43.6994 -89.2544 97° East 530 610 35,000  Level Chicago Center
19:39 43.6828 -89.0506 96° East 532 612 35,000  Level Chicago Center
19:40 43.6661 -88.8458 96° East 535 616 35,000  Level Chicago Center
19:41 43.6489 -88.6406 97° East 533 613 35,000  Level Chicago Center
19:42 43.6292 -88.4306 97° East 539 620 35,000  Level Chicago Center
19:43 43.6106 -88.2225 97° East 538 619 35,000  Level Chicago Center
19:44 43.5906 -88.0181 98° East 534 615 35,000 -145 Level Chicago Center
19:45 43.5686 -87.7819 97° East 530 610 34,700 -581 Descending Chicago Center
19:46 43.5492 -87.5797 97° East 530 610 33,800 -823 Descending Chicago Center
19:47 43.5297 -87.3772 97° East 532 612 33,000 -387 Descending Chicago Center
19:48 43.5078 -87.1592 98° East 541 623 33,000  Level Chicago Center
19:49 43.4864 -86.9542 98° East 540 621 33,000  Level Chicago Center
19:50 43.4661 -86.7497 98° East 539 620 33,000  Level Chicago Center
19:51 43.4447 -86.5458 98° East 538 619 33,000 -435 Level Chicago Center
19:52 43.4236 -86.3403 98° East 540 621 32,100 -1,008 Descending Chicago Center
19:54 43.4006 -86.1333 99° East 543 625 30,900 -1,296 Descending Chicago Center
19:55 43.3756 -85.9286 99° East 539 620 29,400 -1,500 Descending Chicago Center
19:56 43.3403 -85.7319 104° East 530 610 27,800 -2,129 Descending Chicago Center
19:57 43.3011 -85.5108 104° East 501 577 25,000 -2,323 Descending Chicago Center
19:58 43.2692 -85.3339 104° East 483 556 23,000 -968 Descending Chicago Center
19:59 43.2389 -85.1653 104° East 463 533 23,000  Level Chicago Center
20:00 43.2069 -84.9956 104° East 458 527 23,000  Level Chicago Center
20:01 43.1761 -84.8253 104° East 460 529 23,000 -387 Level Chicago Center
20:02 43.1381 -84.6597 107° East 459 528 22,200 -1,694 Descending Chicago Center
20:03 43.0736 -84.4747 115° Southeast 446 513 19,500 -2,323 Descending Chicago Center
20:04 43.0261 -84.3236 113° Southeast 433 498 17,400 -1,834 Descending Chicago Center
20:05 42.9564 -84.1094 114° Southeast 413 475 14,700 -1,774 Descending Cleveland Center
20:06 42.9375 -84.0489 113° Southeast 392 451 14,000 -1,600 Descending Cleveland Center
20:06 42.9089 -83.9622 114° Southeast 394 453 13,100 -1,377 Descending Cleveland Center
20:07 42.8953 -83.9219 115° Southeast 368 423 12,600 -1,000 Descending Cleveland Center
20:07 42.8686 -83.8411 114° Southeast 368 423 12,100 -492 Descending Cleveland Center
20:08 42.8553 -83.7922 110° East 329 379 12,100 -100 Level Cleveland Center
20:08 42.8278 -83.7286 121° Southeast 342 394 12,000 -436 Descending Cleveland Center
20:09 42.8072 -83.7161 156° South 325 374 11,700 -1,300 Descending Cleveland Center
20:09 42.7478 -83.6819 157° South 303 349 10,700 -1,522 Descending Cleveland Center
20:10 42.7128 -83.6661 162° South 309 356 10,000 -1,600 Descending Cleveland Center
20:10 42.6678 -83.6358 154° Southeast 303 349 9,100 -1,672 Descending Cleveland Center
20:11 42.6369 -83.6172 156° South 307 353 8,300 -1,600 Descending Cleveland Center
20:11 42.6050 -83.5650 130° Southeast 303 349 7,500 -1,574 Descending Cleveland Center
20:12 42.5853 -83.5217 122° Southeast 309 356 6,700 -1,500 Descending Cleveland Center
20:12 42.5575 -83.4669 125° Southeast 303 349 6,000 -590 Descending Cleveland Center
20:13 42.5378 -83.4236 122° Southeast 280 322 6,100 100 Climbing Cleveland Center
20:13 42.5139 -83.3775 125° Southeast 297 342 6,100 -109 Level Cleveland Center
20:14 42.4997 -83.3517 127° Southeast 257 296 6,000 -900 Descending Cleveland Center
20:14 42.4742 -83.2969 122° Southeast 276 318 5,200 -1,452 Descending Cleveland Center
20:15 42.4622 -83.2656 117° Southeast 250 288 4,500 -776 Descending Cleveland Center
20:16 42.4086 -83.2378 159° South 176 203 4,100 -344 Descending Cleveland Center
20:17 42.3664 -83.2614 202° Southwest 156 180 3,800 -516 Descending Cleveland Center
20:18 42.3283 -83.2908 210° Southwest 142 163 3,000 -689 Descending Cleveland Center
20:19 42.2986 -83.3147 211° Southwest 141 162 2,400 -732 Descending Cleveland Center
20:20 42.2603 -83.3439 209° Southwest 136 157 1,500 -794 Descending Cleveland Center